Weather History for KNFW - October, 2013

Change the Weather History Date:

Friday, October 4, 2013

  Actual Average Record
Temperature  
Mean Temperature 82 °F -  
Max Temperature 91 °F 78 °F 93 °F (2000)
Min Temperature 75 °F 60 °F 53 °F (2010)
Cooling Degree Days 18    
Growing Degree Days 32 (Base 50)    
Moisture  
Dew Point 66 °F    
Average Humidity 58    
Maximum Humidity 76    
Minimum Humidity 40    
Precipitation  
Precipitation 0.00 in - - ()
Sea Level Pressure  
Sea Level Pressure 29.87 in    
Wind  
Wind Speed 13 mph (SSE)    
Max Wind Speed 18 mph    
Max Gust Speed 24 mph    
Visibility 10 miles    
Events      
Averages and records for this station are not official NWS values.
T = Trace of Precipitation, MM = Missing Value Source: NWS Daily Summary

Daily Weather History Graph

Daily Weather History Graph

Search for Another Location

Airport or City:

Trip Planner

Search our weather history database for the weather conditions in past years. The results will help you decide how hot, cold, wet, or windy it might be!

Date:

Astronomy

Oct. 04, 2013 Rise Set
Actual Time 7:26 AM CDT 7:10 PM CDT
Civil Twilight 7:01 AM CDT 7:34 PM CDT
Nautical Twilight 6:32 AM CDT 8:03 PM CDT
Astronomical Twilight 6:04 AM CDT 8:31 PM CDT
Moon 7:02 AM CDT (10/4) 6:55 PM CDT (10/4)
Length of Visible Light 12h 33m
Length of Day
11h 43m
Waning Crescent, 0% of the Moon is Illuminated
Oct 4
Waning Crescent
Oct 4
New
Oct 11
First Quarter
Oct 18
Full
Oct 26
Last Quarter

Hourly Weather History & Observations

Time (CDT) Temp. Heat Index Dew Point Humidity Pressure Visibility Wind Dir Wind Speed Gust Speed Precip Events Conditions
12:52 AM 81.0 °F 83.3 °F 66.9 °F 62% 29.85 in 10.0 mi SSE 12.7 mph - N/A   Clear
1:52 AM 80.1 °F 82.7 °F 68.0 °F 67% 29.85 in 10.0 mi SSE 12.7 mph - N/A   Clear
2:52 AM 79.0 °F - 66.9 °F 66% 29.85 in 10.0 mi SSE 15.0 mph - N/A   Clear
3:52 AM 78.1 °F - 66.9 °F 68% 29.86 in 10.0 mi SSE 12.7 mph - N/A   Clear
4:52 AM 77.0 °F - 66.0 °F 69% 29.86 in 10.0 mi SSE 10.4 mph - N/A   Clear
5:52 AM 75.9 °F - 66.9 °F 74% 29.87 in 10.0 mi SSE 12.7 mph - N/A   Clear
6:17 AM 75.2 °F - 66.2 °F 73% 29.92 in 10.0 mi SSE 12.7 mph - N/A   Clear
6:52 AM 75.0 °F - 66.9 °F 76% 29.88 in 10.0 mi SSE 12.7 mph - N/A   Scattered Clouds
7:06 AM 75.2 °F - 66.2 °F 73% 29.92 in 10.0 mi SSE 15.0 mph - N/A   Mostly Cloudy
7:52 AM 75.9 °F - 66.9 °F 74% 29.89 in 10.0 mi South 12.7 mph - N/A   Scattered Clouds
8:52 AM 78.1 °F - 66.9 °F 68% 29.90 in 10.0 mi South 11.5 mph - N/A   Mostly Cloudy
9:52 AM 79.0 °F - 66.9 °F 66% 29.91 in 10.0 mi South 12.7 mph - N/A   Overcast
10:35 AM 82.4 °F 84.6 °F 66.2 °F 58% 29.96 in 10.0 mi South 15.0 mph - N/A   Scattered Clouds
10:52 AM 82.0 °F 84.5 °F 66.9 °F 60% 29.91 in 10.0 mi South 12.7 mph - N/A   Mostly Cloudy
11:52 AM 84.9 °F 86.6 °F 64.9 °F 51% 29.90 in 10.0 mi South 16.1 mph 21.9 mph N/A   Mostly Cloudy
12:52 PM 87.1 °F 88.9 °F 64.9 °F 48% 29.88 in 10.0 mi South 15.0 mph - N/A   Scattered Clouds
1:52 PM 88.0 °F 89.6 °F 64.9 °F 46% 29.86 in 10.0 mi South 15.0 mph 20.7 mph N/A   Mostly Cloudy
2:52 PM 89.1 °F 90.3 °F 64.0 °F 43% 29.84 in 10.0 mi South 9.2 mph - N/A   Mostly Cloudy
3:52 PM 90.0 °F 91.3 °F 64.0 °F 42% 29.83 in 10.0 mi SSE 17.3 mph 21.9 mph N/A   Mostly Cloudy
4:52 PM 90.0 °F 91.3 °F 64.0 °F 42% 29.82 in 10.0 mi SSE 18.4 mph 24.2 mph N/A   Mostly Cloudy
5:52 PM 90.0 °F 90.6 °F 63.0 °F 40% 29.82 in 10.0 mi SSE 17.3 mph 21.9 mph N/A   Scattered Clouds
6:52 PM 88.0 °F 88.7 °F 63.0 °F 43% 29.82 in 10.0 mi SSE 13.8 mph - N/A   Scattered Clouds
7:52 PM 87.1 °F 87.8 °F 63.0 °F 44% 29.83 in 10.0 mi SSE 12.7 mph - N/A   Scattered Clouds
8:52 PM 84.9 °F 86.1 °F 64.0 °F 49% 29.83 in 10.0 mi SE 11.5 mph - N/A   Partly Cloudy
9:52 PM 84.0 °F 85.8 °F 64.9 °F 53% 29.84 in 10.0 mi SSE 11.5 mph 20.7 mph N/A   Partly Cloudy
10:52 PM 82.9 °F 84.6 °F 64.9 °F 54% 29.86 in 10.0 mi South 12.7 mph - N/A   Partly Cloudy
11:52 PM 82.9 °F 84.6 °F 64.9 °F 54% 29.86 in 10.0 mi SSE 11.5 mph 20.7 mph N/A   Clear